Tracking 34717 objects as of 14-Jul-2026
HD Live streaming from Space Station
objects crossing your sky now

SL-14 R/B

Track SL-14 R/B now!
10-day predictions


NORAD ID: 22652
Int'l Code: 1993-030G
Perigee: 1,411.5 km
Apogee: 1,422.3 km
Inclination: 82.6 °
Period: 114.0 minutes
Semi major axis: 7787 km
RCS: 0.9779 m2 (medium)
Launch date: May 11, 1993
Source: Commonwealth of Independent States (former USSR) (CIS)
Launch site: PLESETSK MISSILE AND SPACE COMPLEX (PKMTR)

Note: This is a ROCKET BODY
Your satellite tracking list
Your tracking list is empty




NASA's NSSDC Master Catalog

Two Line Element Set (TLE):
1 22652U 93030G   26195.54781289  .00000010  00000-0 -38428-5 0  9991
2 22652  82.5896 306.7078 0006890 229.8371 141.4431 12.63200696529495
Source of the keplerian elements: AFSPC